Myrtle Beach, SC

2:49 PM EDT on July 24, 2017 (GMT -0400)
Myrtle Beach International

Weather History for KMYR - December, 2012

Change the Weather History Date:

Wednesday, December 12, 2012

  Actual Average Record
Temperature  
Mean Temperature 51 °F -  
Max Temperature 60 °F 57 °F 78 °F (2007)
Min Temperature 42 °F 38 °F 25 °F (1988)
Degree Days  
Heating Degree Days 14    
Growing Degree Days 1 (Base 50)    
Moisture  
Dew Point 51 °F    
Average Humidity 95    
Maximum Humidity 100    
Minimum Humidity 87    
Precipitation  
Precipitation 0.10 in - - ()
Sea Level Pressure  
Sea Level Pressure 30.14 in    
Wind  
Wind Speed 8 mph (North)    
Max Wind Speed 21 mph    
Max Gust Speed 30 mph    
Visibility 7 miles    
Events Rain    
Averages and records for this station are not official NWS values.
T = Trace of Precipitation, MM = Missing Value Source: NWS Daily Summary

Daily Weather History Graph

Daily Weather History Graph

Search for Another Location

Airport or City:

Trip Planner

Search our weather history database for the weather conditions in past years. The results will help you decide how hot, cold, wet, or windy it might be!

Date:

Astronomy

Dec. 12, 2012 Rise Set
Actual Time 7:11 AM EST 5:08 PM EST
Civil Twilight 6:43 AM EST 5:35 PM EST
Nautical Twilight 6:12 AM EST 6:06 PM EST
Astronomical Twilight 5:42 AM EST 6:37 PM EST
Moon 6:14 AM EST (12/12) 4:42 PM EST (12/12)
Length of Visible Light 10h 52m
Length of Day
9h 56m
Waning Crescent, 1% of the Moon is Illuminated
Dec 12
Waning Crescent
Dec 13
New
Dec 20
First Quarter
Dec 28
Full
Jan 4
Last Quarter

Hourly Weather History & Observations

Time (EST) Temp. Windchill Dew Point Humidity Pressure Visibility Wind Dir Wind Speed Gust Speed Precip Events Conditions
12:15 AM 60.8 °F - 60.8 °F 100% 30.06 in 10.0 mi Calm Calm - N/A   Overcast
12:35 AM 60.8 °F - 59.0 °F 94% 30.05 in 10.0 mi Calm Calm - N/A   Scattered Clouds
12:55 AM 60.8 °F - 59.0 °F 94% 30.04 in 10.0 mi SE 6.9 mph - N/A   Scattered Clouds
1:15 AM 60.8 °F - 59.0 °F 94% 30.06 in 7.0 mi NW 4.6 mph - N/A   Overcast
1:35 AM 60.8 °F - 59.0 °F 94% 30.08 in 8.0 mi WNW 5.8 mph - N/A   Overcast
1:55 AM 60.8 °F - 57.2 °F 88% 30.09 in 10.0 mi NW 5.8 mph - N/A   Overcast
2:15 AM 60.8 °F - 57.2 °F 88% 30.10 in 10.0 mi NNW 11.5 mph - N/A   Overcast
2:35 AM 57.2 °F - 53.6 °F 88% 30.09 in 10.0 mi North 10.4 mph - N/A   Overcast
2:55 AM 57.2 °F - 55.4 °F 94% 30.08 in 10.0 mi NNE 5.8 mph - N/A   Overcast
3:15 AM 57.2 °F - 55.4 °F 94% 30.08 in 10.0 mi NE 6.9 mph - N/A   Overcast
3:35 AM 57.2 °F - 55.4 °F 94% 30.09 in 10.0 mi North 5.8 mph - N/A   Overcast
3:55 AM 57.2 °F - 53.6 °F 88% 30.10 in 10.0 mi NNW 11.5 mph - N/A   Overcast
4:15 AM 55.4 °F - 55.4 °F 100% 30.10 in 10.0 mi North 9.2 mph - N/A   Overcast
4:35 AM 55.4 °F - 55.4 °F 100% 30.10 in 10.0 mi North 8.1 mph - N/A   Overcast
4:55 AM 55.4 °F - 55.4 °F 100% 30.09 in 10.0 mi NNE 6.9 mph - N/A   Overcast
5:15 AM 55.4 °F - 53.6 °F 94% 30.10 in 8.0 mi NNW 6.9 mph - N/A   Overcast
5:35 AM 55.4 °F - 53.6 °F 94% 30.10 in 3.0 mi NNW 6.9 mph - N/A   Overcast
5:55 AM 55.4 °F - 53.6 °F 94% 30.11 in 2.5 mi North 10.4 mph - N/A   Overcast
6:47 AM 53.6 °F - 53.6 °F 100% 30.13 in 2.0 mi North 13.8 mph - N/A   Overcast
7:50 AM 51.8 °F - 51.8 °F 100% 30.15 in 2.0 mi North 17.3 mph - N/A   Overcast
8:45 AM 51.8 °F - 51.8 °F 100% 30.18 in 2.0 mi NNE 11.5 mph - N/A   Overcast
9:50 AM 51.8 °F - 50.0 °F 94% 30.20 in 2.0 mi NNE 12.7 mph - N/A   Overcast
10:50 AM 50.0 °F - 48.2 °F 94% 30.18 in 3.0 mi NNE 17.3 mph 21.9 mph N/A   Overcast
11:45 AM 48.2 °F - 48.2 °F 100% 30.19 in 6.0 mi NNE 12.7 mph 20.7 mph N/A   Overcast
12:48 PM 48.2 °F - 46.4 °F 93% 30.17 in 5.0 mi NNE 13.8 mph 18.4 mph N/A   Overcast
1:48 PM 48.2 °F - 46.4 °F 93% 30.14 in 6.0 mi NE 15.0 mph - N/A   Overcast
2:50 PM 48.2 °F - 46.4 °F 93% 30.16 in 6.0 mi NNE 17.3 mph - N/A   Overcast
3:50 PM 48.2 °F - 44.6 °F 87% 30.19 in 4.0 mi North 12.7 mph 19.6 mph N/A Rain Light Rain
4:45 PM 46.4 °F 39.2 °F 44.6 °F 93% 30.21 in 4.0 mi North 18.4 mph 23.0 mph N/A Rain Light Rain
5:21 PM 44.6 °F 36.4 °F 44.6 °F 100% 30.19 in 4.0 mi NNE 20.7 mph 29.9 mph N/A Rain Rain
5:45 PM 44.6 °F 37.2 °F 44.6 °F 100% 30.20 in 6.0 mi NNE 17.3 mph - N/A Rain Rain
6:50 PM 44.6 °F 37.8 °F 44.6 °F 100% 30.23 in 6.0 mi NE 15.0 mph - N/A Rain Light Rain
7:45 PM 44.6 °F 37.8 °F 44.6 °F 100% 30.19 in 6.0 mi NNE 15.0 mph - N/A   Overcast
8:15 PM 44.6 °F 38.8 °F 42.8 °F 93% 30.21 in 6.0 mi North 11.5 mph - N/A Rain Light Rain
8:45 PM 44.6 °F 37.8 °F 44.6 °F 100% 30.18 in 5.0 mi NE 15.0 mph 20.7 mph N/A Rain Light Rain
9:45 PM 44.6 °F 38.1 °F 42.8 °F 93% 30.24 in 5.0 mi North 13.8 mph 19.6 mph N/A Rain Light Rain
10:55 PM 42.8 °F 36.2 °F 41.0 °F 93% 30.20 in 10.0 mi North 12.7 mph - 0.10 in   Overcast
11:15 PM 42.8 °F 35.8 °F 42.8 °F 100% 30.20 in 10.0 mi North 13.8 mph - N/A   Overcast
11:35 PM 42.8 °F 35.4 °F 42.8 °F 100% 30.19 in 10.0 mi NNE 15.0 mph 20.7 mph N/A   Overcast
11:55 PM 42.8 °F 35.4 °F 42.8 °F 100% 30.18 in 10.0 mi NE 15.0 mph 21.9 mph N/A   Overcast